Time,TemperatureF,DewpointF,PressureIn,WindDirection,WindDirectionDegrees,WindSpeedMPH,WindSpeedGustMPH,Humidity,HourlyPrecipIn,Conditions,Clouds,dailyrainin,SoftwareType,DateUTC
2013-02-16 00:05:00,34.1,33.0,30.32,SW,228,0.0,1.0,95,0.00,,,0.02,weatherlink.com 1.10,2013-02-16 05:05:00,
2013-02-16 00:20:00,34.2,33.0,30.32,WSW,245,0.0,3.0,94,0.00,,,0.02,weatherlink.com 1.10,2013-02-16 05:20:00,
2013-02-16 00:35:00,33.9,32.0,30.31,ESE,103,0.0,1.0,94,0.00,,,0.02,weatherlink.com 1.10,2013-02-16 05:35:00,
2013-02-16 00:50:00,33.7,32.0,30.30,SE,126,0.0,0.0,93,0.00,,,0.00,weatherlink.com 1.10,2013-02-16 05:50:00,
2013-02-16 01:05:00,33.4,31.0,30.30,SE,127,0.0,-999.0,92,-99.99,,,0.00,weatherlink.com 1.10,2013-02-16 06:05:00,
2013-02-16 01:20:00,33.0,31.0,30.30,SE,127,0.0,1.0,92,0.00,,,0.00,weatherlink.com 1.10,2013-02-16 06:20:00,
2013-02-16 01:36:00,32.5,31.0,30.30,SE,124,0.0,1.0,93,0.00,,,0.00,weatherlink.com 1.10,2013-02-16 06:36:00,
2013-02-16 01:51:00,32.1,30.0,30.30,ESE,121,0.0,0.0,93,0.00,,,0.00,weatherlink.com 1.10,2013-02-16 06:51:00,
2013-02-16 02:06:00,32.0,30.0,30.30,ESE,121,0.0,0.0,93,0.00,,,0.00,weatherlink.com 1.10,2013-02-16 07:06:00,
2013-02-16 02:21:00,32.0,30.0,30.29,ESE,121,0.0,0.0,92,0.00,,,0.00,weatherlink.com 1.10,2013-02-16 07:21:00,
2013-02-16 02:36:00,31.9,30.0,30.29,ESE,104,0.0,0.0,92,0.00,,,0.00,weatherlink.com 1.10,2013-02-16 07:36:00,
2013-02-16 02:51:00,31.7,29.0,30.28,ENE,75,0.0,0.0,90,0.00,,,0.00,weatherlink.com 1.10,2013-02-16 07:51:00,
2013-02-16 03:06:00,31.3,28.0,30.27,ENE,62,0.0,1.0,87,0.00,,,0.00,weatherlink.com 1.10,2013-02-16 08:06:00,
2013-02-16 03:21:00,30.9,27.0,30.26,ENE,62,0.0,0.0,86,0.00,,,0.00,weatherlink.com 1.10,2013-02-16 08:21:00,
2013-02-16 03:36:00,30.6,27.0,30.26,ENE,62,1.0,1.0,85,0.00,,,0.00,weatherlink.com 1.10,2013-02-16 08:36:00,
2013-02-16 03:51:00,30.2,26.0,30.26,ENE,63,0.0,1.0,85,0.00,,,0.00,weatherlink.com 1.10,2013-02-16 08:51:00,
2013-02-16 04:06:00,30.0,26.0,30.25,ENE,62,1.0,1.0,84,0.00,,,0.00,weatherlink.com 1.10,2013-02-16 09:06:00,
2013-02-16 04:21:00,30.2,26.0,30.25,ENE,62,0.0,1.0,85,0.00,,,0.00,weatherlink.com 1.10,2013-02-16 09:21:00,
2013-02-16 04:36:00,30.2,26.0,30.25,ENE,62,0.0,0.0,85,0.00,,,0.00,weatherlink.com 1.10,2013-02-16 09:36:00,
2013-02-16 04:51:00,30.4,27.0,30.25,ENE,63,0.0,0.0,86,0.00,,,0.00,weatherlink.com 1.10,2013-02-16 09:51:00,
2013-02-16 05:06:00,30.2,27.0,30.26,ENE,61,2.0,2.0,87,0.00,,,0.00,weatherlink.com 1.10,2013-02-16 10:06:00,
2013-02-16 05:21:00,30.3,26.0,30.26,ENE,61,1.0,1.0,85,0.00,,,0.00,weatherlink.com 1.10,2013-02-16 10:21:00,
2013-02-16 05:36:00,30.2,26.0,30.25,ENE,60,0.0,1.0,84,0.00,,,0.00,weatherlink.com 1.10,2013-02-16 10:36:00,
2013-02-16 05:51:00,30.3,26.0,30.25,ENE,60,0.0,1.0,84,0.00,,,0.00,weatherlink.com 1.10,2013-02-16 10:51:00,
2013-02-16 06:06:00,30.3,26.0,30.25,ENE,61,0.0,1.0,84,0.00,,,0.00,weatherlink.com 1.10,2013-02-16 11:06:00,
2013-02-16 06:21:00,30.4,24.0,30.25,ENE,60,0.0,1.0,78,0.00,,,0.00,weatherlink.com 1.10,2013-02-16 11:21:00,
2013-02-16 06:36:00,30.3,25.0,30.25,ENE,61,1.0,1.0,79,0.00,,,0.00,weatherlink.com 1.10,2013-02-16 11:36:00,
2013-02-16 06:51:00,30.1,26.0,30.25,WSW,239,2.0,3.0,83,0.00,,,0.00,weatherlink.com 1.10,2013-02-16 11:51:00,
2013-02-16 07:06:00,29.7,26.0,30.25,WSW,246,4.0,4.0,85,0.00,,,0.00,weatherlink.com 1.10,2013-02-16 12:06:00,
2013-02-16 07:21:00,29.2,26.0,30.26,SW,233,2.0,4.0,88,0.00,,,0.00,weatherlink.com 1.10,2013-02-16 12:21:00,
2013-02-16 07:36:00,28.9,26.0,30.26,SW,236,2.0,3.0,90,0.00,,,0.00,weatherlink.com 1.10,2013-02-16 12:36:00,
2013-02-16 07:51:00,28.8,27.0,30.26,SW,232,2.0,3.0,91,0.00,,,0.00,weatherlink.com 1.10,2013-02-16 12:51:00,
2013-02-16 08:06:00,28.9,27.0,30.26,WSW,250,3.0,4.0,91,0.00,,,0.00,weatherlink.com 1.10,2013-02-16 13:06:00,
2013-02-16 08:21:00,28.8,27.0,30.26,WSW,258,1.0,3.0,93,0.00,,,0.00,weatherlink.com 1.10,2013-02-16 13:21:00,
2013-02-16 08:36:00,28.5,27.0,30.26,WSW,242,3.0,4.0,93,0.00,,,0.00,weatherlink.com 1.10,2013-02-16 13:36:00,
2013-02-16 08:51:00,28.6,27.0,30.27,SW,236,2.0,4.0,93,0.00,,,0.00,weatherlink.com 1.10,2013-02-16 13:51:00,
2013-02-16 09:06:00,28.6,27.0,30.26,WSW,251,1.0,4.0,93,0.00,,,0.00,weatherlink.com 1.10,2013-02-16 14:06:00,
2013-02-16 09:21:00,28.5,27.0,30.27,WSW,246,3.0,5.0,92,0.00,,,0.00,weatherlink.com 1.10,2013-02-16 14:21:00,
2013-02-16 09:36:00,29.0,27.0,30.27,WSW,243,2.0,5.0,91,0.00,,,0.00,weatherlink.com 1.10,2013-02-16 14:36:00,
2013-02-16 09:51:00,28.9,26.0,30.26,WSW,246,3.0,5.0,90,0.00,,,0.00,weatherlink.com 1.10,2013-02-16 14:51:00,
2013-02-16 10:06:00,28.9,26.0,30.26,WSW,257,5.0,6.0,88,0.00,,,0.00,weatherlink.com 1.10,2013-02-16 15:06:00,
2013-02-16 10:21:00,29.0,26.0,30.27,WSW,242,5.0,7.0,88,0.00,,,0.00,weatherlink.com 1.10,2013-02-16 15:21:00,
2013-02-16 10:37:00,28.6,26.0,30.26,SW,233,4.0,8.0,89,0.00,,,0.00,weatherlink.com 1.10,2013-02-16 15:37:00,
2013-02-16 10:52:00,29.0,27.0,30.26,WSW,255,5.0,8.0,90,0.00,,,0.00,weatherlink.com 1.10,2013-02-16 15:52:00,
2013-02-16 11:07:00,29.6,26.0,30.27,WSW,247,2.0,7.0,86,0.00,,,0.00,weatherlink.com 1.10,2013-02-16 16:07:00,
2013-02-16 11:22:00,30.1,27.0,30.27,WSW,250,6.0,9.0,87,0.00,,,0.00,weatherlink.com 1.10,2013-02-16 16:22:00,
2013-02-16 11:37:00,30.9,27.0,30.26,WSW,239,6.0,7.0,84,0.00,,,0.00,weatherlink.com 1.10,2013-02-16 16:37:00,
2013-02-16 11:52:00,29.1,26.0,30.27,WSW,258,2.0,10.0,87,0.00,,,0.00,weatherlink.com 1.10,2013-02-16 16:52:00,
2013-02-16 12:07:00,27.8,25.0,30.27,WSW,237,0.0,5.0,90,0.00,,,0.00,weatherlink.com 1.10,2013-02-16 17:07:00,
2013-02-16 12:22:00,28.3,26.0,30.27,West,269,0.0,3.0,91,0.00,,,0.00,weatherlink.com 1.10,2013-02-16 17:22:00,
2013-02-16 12:37:00,28.1,26.0,30.26,SW,217,0.0,2.0,91,0.00,,,0.00,weatherlink.com 1.10,2013-02-16 17:37:00,
2013-02-16 12:52:00,27.7,26.0,30.27,West,267,1.0,5.0,91,0.00,,,0.00,weatherlink.com 1.10,2013-02-16 17:52:00,
2013-02-16 13:07:00,26.4,24.0,30.27,WSW,253,3.0,7.0,91,0.00,,,0.00,weatherlink.com 1.10,2013-02-16 18:07:00,
2013-02-16 13:22:00,27.7,26.0,30.27,West,262,0.0,2.0,91,0.00,,,0.00,weatherlink.com 1.10,2013-02-16 18:22:00,
2013-02-16 13:37:00,28.9,25.0,30.25,WSW,253,0.0,1.0,85,0.00,,,0.00,weatherlink.com 1.10,2013-02-16 18:37:00,
2013-02-16 13:52:00,29.6,24.0,30.25,WSW,250,1.0,1.0,81,0.00,,,0.00,weatherlink.com 1.10,2013-02-16 18:52:00,
2013-02-16 14:07:00,29.7,24.0,30.26,ENE,61,2.0,4.0,78,0.00,,,0.00,weatherlink.com 1.10,2013-02-16 19:07:00,
2013-02-16 14:22:00,29.8,24.0,30.26,WSW,257,1.0,2.0,78,0.00,,,0.00,weatherlink.com 1.10,2013-02-16 19:22:00,
2013-02-16 14:37:00,28.1,22.0,30.27,SW,218,0.0,6.0,78,0.00,,,0.00,weatherlink.com 1.10,2013-02-16 19:37:00,
2013-02-16 14:52:00,28.9,23.0,30.27,West,281,0.0,5.0,78,0.00,,,0.00,weatherlink.com 1.10,2013-02-16 19:52:00,
2013-02-16 15:07:00,28.3,23.0,30.27,WSW,245,0.0,4.0,80,0.00,,,0.00,weatherlink.com 1.10,2013-02-16 20:07:00,
2013-02-16 15:22:00,28.6,22.0,30.27,West,269,2.0,4.0,77,0.00,,,0.00,weatherlink.com 1.10,2013-02-16 20:22:00,
2013-02-16 15:37:00,29.6,22.0,30.27,East,86,0.0,3.0,72,0.00,,,0.00,weatherlink.com 1.10,2013-02-16 20:37:00,
2013-02-16 15:52:00,29.6,22.0,30.27,WSW,245,0.0,2.0,72,0.00,,,0.00,weatherlink.com 1.10,2013-02-16 20:52:00,
2013-02-16 16:07:00,29.4,21.0,30.29,WSW,256,0.0,1.0,71,0.00,,,0.00,weatherlink.com 1.10,2013-02-16 21:07:00,
2013-02-16 16:22:00,28.2,18.0,30.29,WSW,250,0.0,7.0,67,0.00,,,0.00,weatherlink.com 1.10,2013-02-16 21:22:00,
2013-02-16 16:37:00,29.4,19.0,30.30,WSW,245,0.0,10.0,65,0.00,,,0.00,weatherlink.com 1.10,2013-02-16 21:37:00,
2013-02-16 16:52:00,30.6,19.0,30.31,SW,232,0.0,6.0,62,0.00,,,0.00,weatherlink.com 1.10,2013-02-16 21:52:00,
2013-02-16 17:07:00,30.3,19.0,30.31,West,263,1.0,4.0,64,0.00,,,0.00,weatherlink.com 1.10,2013-02-16 22:07:00,
2013-02-16 17:22:00,28.3,20.0,30.33,East,82,0.0,5.0,70,0.00,,,0.00,weatherlink.com 1.10,2013-02-16 22:22:00,
2013-02-16 17:37:00,26.9,19.0,30.33,SW,236,0.0,8.0,73,0.00,,,0.00,weatherlink.com 1.10,2013-02-16 22:37:00,
2013-02-16 17:52:00,25.9,20.0,30.34,SW,230,3.0,4.0,78,0.00,,,0.00,weatherlink.com 1.10,2013-02-16 22:52:00,
2013-02-16 18:07:00,24.4,20.0,30.34,WSW,250,0.0,6.0,84,0.00,,,0.00,weatherlink.com 1.10,2013-02-16 23:07:00,
2013-02-16 18:22:00,23.6,18.0,30.34,West,281,0.0,4.0,79,0.00,,,0.00,weatherlink.com 1.10,2013-02-16 23:22:00,
2013-02-16 18:37:00,23.5,17.0,30.35,NE,56,2.0,8.0,77,0.00,,,0.00,weatherlink.com 1.10,2013-02-16 23:37:00,
2013-02-16 18:52:00,23.9,18.0,30.36,ESE,108,0.0,2.0,79,0.00,,,0.00,weatherlink.com 1.10,2013-02-16 23:52:00,
2013-02-16 19:07:00,23.2,19.0,30.36,WSW,238,0.0,4.0,82,0.00,,,0.00,weatherlink.com 1.10,2013-02-17 00:07:00,
2013-02-16 19:22:00,22.9,17.0,30.37,WSW,251,2.0,4.0,79,0.00,,,0.00,weatherlink.com 1.10,2013-02-17 00:22:00,
2013-02-16 19:37:00,22.9,17.0,30.37,West,275,2.0,13.0,79,0.00,,,0.00,weatherlink.com 1.10,2013-02-17 00:37:00,
2013-02-16 19:52:00,22.7,17.0,30.38,WSW,256,1.0,5.0,80,0.00,,,0.00,weatherlink.com 1.10,2013-02-17 00:52:00,
2013-02-16 20:07:00,22.5,18.0,30.39,WSW,257,0.0,2.0,81,0.00,,,0.00,weatherlink.com 1.10,2013-02-17 01:07:00,
2013-02-16 20:23:00,22.8,18.0,30.39,SW,218,0.0,6.0,82,0.00,,,0.00,weatherlink.com 1.10,2013-02-17 01:23:00,
2013-02-16 20:38:00,22.4,17.0,30.40,West,262,0.0,5.0,81,0.00,,,0.00,weatherlink.com 1.10,2013-02-17 01:38:00,
2013-02-16 20:53:00,22.1,16.0,30.40,NNE,18,1.0,3.0,77,0.00,,,0.00,weatherlink.com 1.10,2013-02-17 01:53:00,
2013-02-16 21:08:00,22.1,15.0,30.41,SW,233,4.0,4.0,75,0.00,,,0.00,weatherlink.com 1.10,2013-02-17 02:08:00,
2013-02-16 21:23:00,22.3,15.0,30.41,ENE,71,6.0,6.0,73,0.00,,,0.00,weatherlink.com 1.10,2013-02-17 02:23:00,
2013-02-16 21:38:00,22.5,15.0,30.41,WSW,257,1.0,4.0,74,0.00,,,0.00,weatherlink.com 1.10,2013-02-17 02:38:00,
2013-02-16 21:53:00,22.4,14.0,30.42,WSW,257,0.0,5.0,69,0.00,,,0.00,weatherlink.com 1.10,2013-02-17 02:53:00,
2013-02-16 22:08:00,22.1,13.0,30.42,ESE,105,1.0,6.0,67,0.00,,,0.00,weatherlink.com 1.10,2013-02-17 03:08:00,
2013-02-16 22:23:00,21.9,13.0,30.43,WNW,287,2.0,7.0,68,0.00,,,0.00,weatherlink.com 1.10,2013-02-17 03:23:00,
2013-02-16 22:38:00,21.6,12.0,30.43,NE,53,2.0,4.0,67,0.00,,,0.00,weatherlink.com 1.10,2013-02-17 03:38:00,
2013-02-16 22:53:00,21.5,12.0,30.43,SE,128,1.0,5.0,67,0.00,,,0.00,weatherlink.com 1.10,2013-02-17 03:53:00,
2013-02-16 23:08:00,21.2,11.0,30.43,SSW,195,0.0,3.0,65,0.00,,,0.00,weatherlink.com 1.10,2013-02-17 04:08:00,
2013-02-16 23:23:00,20.8,11.0,30.43,East,86,1.0,2.0,67,0.00,,,0.00,weatherlink.com 1.10,2013-02-17 04:23:00,
2013-02-16 23:38:00,20.7,11.0,30.44,WSW,256,1.0,6.0,66,0.00,,,0.00,weatherlink.com 1.10,2013-02-17 04:38:00,
2013-02-16 23:53:00,20.5,11.0,30.44,East,91,0.0,2.0,67,0.00,,,0.00,weatherlink.com 1.10,2013-02-17 04:53:00,